sat.trackr.live / text

‹ back to catalog

STARLINK-33871

NORAD 63994 · 2025-101A

PAYLOAD ACTIVE UNKNOWN

§ Identity

Operator
Country
US
Launch date
2025-05-14
Launch site
AFETR
Launch vehicle
Mass (kg)
RCS (m²)

Purposes: comms

External: N2YO · Heavens-Above · Gunter

§ Orbital elements

Epoch: 2026-09-19T12:12:48.734496Z

Period
94.27 min
Inclination
43.0005°
Eccentricity
0.0001567
Mean motion
15.27594174 rev/d
Perigee alt
481.9 km
Apogee alt
484.1 km
Semi-major
6,861.1 km
B*
4.5008e-4
RAAN
343.6953°
Arg perigee
274.4449°
Mean anomaly
85.6224°
Rev number
7,662

§ Raw data

STARLINK-338711 63994U 25101A   26262.50889739  .00012149  00000+0  45008-3 0  99932 63994  43.0005 343.6953 0001567 274.4449  85.6224 15.27594174 76624

JSON: /api/v1/satellites/63994 · /tle

For live sub-satellite position, see the globe view (requires WebGL).

§ Visibility from observer

Set your observer location to see the next 7 days of passes ≥ 10°. The values pass through the URL so the page stays shareable.

No JS? Fill the form by hand. The geolocation button needs JavaScript.